CDT,Max TemperatureF,Mean TemperatureF,Min TemperatureF,Max Dew PointF,MeanDew PointF,Min DewpointF,Max Humidity, Mean Humidity, Min Humidity, Max Sea Level PressureIn, Mean Sea Level PressureIn, Min Sea Level PressureIn, Max VisibilityMiles, Mean VisibilityMiles, Min VisibilityMiles, Max Wind SpeedMPH, Mean Wind SpeedMPH, Max Gust SpeedMPH,PrecipitationIn, CloudCover, Events, WindDirDegrees
2012-10-1,68,59,50,56,49,44,80,70,60,30.02,29.97,29.91,10,10,8,32,12,37,0.01,4,Rain,331
2012-10-2,74,59,44,46,39,33,77,50,23,30.04,29.97,29.88,10,10,10,12,5,15,0.00,0,,296
2012-10-3,83,63,43,50,43,38,83,55,26,29.92,29.86,29.78,10,10,10,25,12,33,0.00,0,,175
2012-10-4,67,59,50,52,38,32,67,54,40,30.30,30.20,29.95,10,10,10,30,15,36,0.00,4,,2
2012-10-5,54,47,40,34,32,28,70,56,41,30.35,30.31,30.27,10,10,10,23,11,29,T,5,,12
2012-10-6,48,43,37,36,30,25,76,59,42,30.42,30.37,30.32,10,10,10,16,8,20,T,7,,343
2012-10-7,56,41,25,33,29,25,85,62,38,30.39,30.29,30.15,10,10,10,20,7,24,0.00,1,,241
2012-10-8,73,54,34,36,32,29,82,52,22,30.14,30.00,29.88,10,10,10,24,13,30,0.00,0,,187
2012-10-9,64,51,38,42,35,25,76,56,35,30.19,29.96,29.83,10,10,9,25,10,32,0.00,1,,309
2012-10-10,68,49,29,30,27,25,78,50,22,30.31,30.20,30.09,10,10,10,14,5,20,0.00,0,,170
2012-10-11,80,64,47,52,41,30,61,49,37,30.18,30.05,29.96,10,10,10,22,11,30,0.00,2,,126
2012-10-12,61,55,49,57,43,31,93,68,43,30.27,30.15,29.96,10,7,1,21,9,28,0.05,8,Rain,89
2012-10-13,81,68,54,68,60,52,93,80,67,29.94,29.78,29.54,10,8,1,23,10,35,0.88,6,Rain-Thunderstorm,190
2012-10-14,75,64,53,57,47,41,86,59,31,30.04,29.88,29.59,10,10,10,30,13,37,0.01,2,Rain,302
2012-10-15,83,64,45,50,45,41,86,57,28,30.01,29.90,29.73,10,10,10,17,7,22,0.00,0,,184
2012-10-16,80,67,54,54,46,42,67,47,26,29.71,29.60,29.44,10,10,10,15,7,20,0.00,0,,210
2012-10-17,69,59,49,55,40,25,84,53,22,29.78,29.59,29.38,10,10,10,32,15,39,0.01,1,,290
2012-10-18,67,55,43,28,24,19,53,36,19,29.82,29.79,29.72,10,9,6,43,24,51,0.00,2,,297
2012-10-19,66,54,41,33,29,22,62,44,26,29.91,29.84,29.81,10,10,10,28,15,36,0.00,0,,296
2012-10-20,84,61,38,48,36,30,76,47,17,29.83,29.72,29.63,10,10,10,14,5,18,0.00,0,,175
2012-10-21,86,68,50,65,57,47,84,64,44,29.72,29.66,29.60,10,9,4,22,9,26,0.00,1,,154
2012-10-22,73,62,51,65,56,52,100,87,73,29.83,29.76,29.62,10,5,0,17,7,23,0.00,4,Fog,262
2012-10-23,87,69,51,65,54,48,96,63,29,29.80,29.71,29.62,10,7,2,24,9,28,0.00,3,,193
2012-10-24,76,67,58,66,59,53,87,68,49,29.76,29.69,29.63,10,10,7,29,12,35,T,3,Rain,277
2012-10-25,58,46,34,55,38,27,89,69,48,30.36,30.01,29.64,10,9,3,32,20,40,0.23,6,Rain,347
2012-10-26,46,38,30,27,25,24,75,60,45,30.58,30.48,30.38,10,10,10,21,10,25,T,3,Snow,354
2012-10-27,48,38,27,28,26,23,85,64,42,30.45,30.36,30.25,10,10,10,12,5,17,0.00,2,,121
2012-10-28,56,42,27,30,27,24,85,60,35,30.34,30.26,30.19,10,10,10,15,8,20,0.00,4,,160
2012-10-29,69,56,42,33,29,25,60,42,24,30.20,30.12,30.03,10,10,10,24,13,31,0.00,1,,176
2012-10-30,69,57,44,38,35,33,61,46,30,30.04,29.97,29.93,10,10,10,13,5,16,0.00,1,,95
2012-10-31,70,53,35,39,35,30,82,57,31,30.10,30.04,29.97,10,10,10,9,2,13,0.00,0,,161